FW2330 Weather Reports


time (UTC)temp
F
wind
direction
speed
knots
gust
knots
rain 1hr
in
rain 24hr
in
rain mn
in
humidity
%
barometer
mb
20260504081546 84 15 0.0 8.7 0.00 0.00 0.00 70 1009.3
20260504044540 90 136 1.7 7.0 0.00 0.00 0.00 58 1009.0
20260504043031 91 150 1.7 7.0 0.00 0.00 0.00 58 1009.3
20260504041530 90 155 1.7 7.8 0.00 0.00 0.00 59 1009.7
20260504040030 90 115 2.6 7.0 0.00 0.00 0.00 56 1010.0
20260504034546 90 137 1.7 7.0 0.00 0.00 0.00 57 1010.4
20260504033028 91 213 0.9 7.8 0.00 0.00 0.00 56 1010.6
20260504031527 89 128 0.9 4.3 0.00 0.00 0.00 58 1010.7
20260504030039 89 126 2.6 7.0 0.00 0.00 0.00 59 1010.8
20260504024525 89 224 0.9 5.2 0.00 0.00 0.00 60 1010.9
20260504023026 89 171 1.7 8.7 0.00 0.00 0.00 59 1010.9
20260504021525 88 107 0.9 8.7 0.00 0.00 0.00 60 1011.0
20260504020023 89 183 0.9 7.0 0.00 0.00 0.00 59 1011.1
20260504014535 89 134 0.9 6.1 0.00 0.00 0.00 57 1011.2
20260504013022 90 184 0.0 5.2 0.00 0.00 0.00 56 1011.2
20260504011519 88 130 0.0 2.6 0.00 0.00 0.00 63 1011.3
20260504010020 88 130 0.0 4.3 0.00 0.00 0.00 63 1011.3
20260504004515 87 60 0.0 4.3 0.00 0.00 0.00 64 1011.3
20260504003024 86 132 0.9 4.3 0.00 0.00 0.00 65 1011.2
20260504001509 86 129 0.0 3.5 0.00 0.00 0.00 67 1011.2
20260504000007 86 90 0.0 2.6 0.00 0.00 0.00 67 1011.0
20260503234513 85 11 0.0 1.7 0.00 0.00 0.00 68 1010.8
20260503233002 84 12 0.0 2.6 0.00 0.00 0.00 69 1010.5
20260503231558 83 13 0.0 1.7 0.00 0.00 0.00 72 1010.3
20260503230100 81 19 0.0 0.9 0.00 0.00 0.00 74 1010.3
20260503224552 81 20 0.0 0.9 0.00 0.00 0.00 74 1010.0
20260503223056 80 21 0.0 1.7 0.00 0.00 0.00 75 1009.9
20260503221551 79 248 0.0 0.9 0.00 0.00 0.00 77 1009.8
20260503220045 78 247 0.0 0.9 0.00 0.01 0.00 78 1009.6
20260503214544 77 245 0.0 0.0 0.00 0.01 0.00 79 1009.5
20260503213059 77 319 0.0 0.0 0.00 0.01 0.00 79 1009.3
20260503211542 77 5 0.0 0.0 0.00 0.01 0.00 79 1009.1
20260503210053 77 5 0.0 0.0 0.00 0.01 0.00 79 1009.2
20260503204549 77 5 0.0 0.0 0.00 0.01 0.00 79 1009.2
20260503203040 77 5 0.0 0.0 0.00 0.01 0.00 79 1009.0
20260503201538 77 5 0.0 0.0 0.00 0.01 0.00 79 1008.9
20260503200036 77 5 0.0 0.0 0.00 0.01 0.00 79 1008.5
20260503194538 77 5 0.0 0.0 0.00 0.01 0.00 79 1008.6
20260503193046 78 5 0.0 0.0 0.00 0.01 0.00 79 1008.5
20260503191535 78 5 0.0 0.0 0.00 0.01 0.00 79 1008.5
20260503190037 78 5 0.0 0.0 0.00 0.02 0.00 79 1008.7
20260503184540 78 5 0.0 0.0 0.00 0.02 0.00 79 1008.7
20260503183035 78 5 0.0 0.0 0.00 0.02 0.00 79 1008.7
20260503181530 78 5 0.0 0.0 0.00 0.02 0.00 78 1008.9
20260503180032 78 5 0.0 0.0 0.00 0.04 0.00 78 1008.9
20260503174527 78 5 0.0 0.0 0.00 0.04 0.00 78 1008.9
20260503173035 78 5 0.0 0.0 0.00 0.04 0.00 78 1009.1
20260503171524 78 5 0.0 0.0 0.00 0.04 0.00 78 1009.3